Location: Asheville, NC
(35.6000°N, 82.5500°W)
Time: 19:46:53
(UTC-04:00)

CUBESAT XI-V - Pass Details

Date: 04 January 2018
Orbit: 669 x 694 km, 97.9° (Epoch: 26 May)

Event Time Altitude Azimuth Distance (km) Brightness Sun altitude
Rises 18:09:48 0° 345° (NNW) 3,052 ? -8.1°
Maximum altitude 18:14:56 10° 297° (WNW) 2,111 ? -9.0°
Drops below altitude 10° 18:15:23 10° 291° (WNW) 2,119 ? -9.1°
Sets 18:20:01 0° 248° (WSW) 3,018 ? -10.0°
